DMSP 5D-2 F13 DEB, 40526

Orbit data source: Space-Track

DMSP 5D-2 F13 DEB, 40526 is space debris in SSO originally from a launch on Fri, 24 Mar 1995 UTC launched from the Air Force Western Test Range (AFWTR). Debris objects in space refer to the collection of defunct objects orbiting the Earth. Examples of debris include non-operational satellites, rocket bodies, and fragments generated from explosions, collisions, or faulty payload assembly.

Loading next visibility...
Identifier
40526, 1995-015DN
Orbit
SSO
Country
Flag of USUS
Related business
Manufacturer
Unknown
Mission
Spacecraft
Bus & Motor
Unknown
Mass
Unknown
Launch date (UTC)
1995-03-24 (31 years ago)
Launch vehicle
Unknown
Launch site
Air Force Western Test Range (AFWTR)
Object type
Payload
Rocket body
Debris
Shape & HBR
Unknown shape, 0.1 m
Radar Cross Section
Small (<0.1 m²)

Expand to show TLE details & history
Last TLE update: 11 hours ago

TLE from 11 hours ago
0 DMSP 5D-2 F13 DEB
1 40526U 95015DN  25343.36718367  .00008975  00000-0  25934-2 0  9999
2 40526  98.6232  21.1070 0025591 155.2756 204.9666 14.44596836557890
Epoch: 2025-12-09T08:48Z
TLE epoch observation values (Epoch: 2025-12-09T08:48:44.669Z)
Latitude
-0.00009°
Longitude
170.56801°
Altitude
762.835 km
Speed
7.464 km/s
True Right ascension
01h 24m 25s
True Declination
0° 00' 00"
Sunlit
Object was in full shadow at epoch
Visualization orbit readout
Latitude
Unknown
Longitude
Unknown
Altitude
Unknown
Speed
Unknown
Apparent Right ascension
Unknown
Apparent Declination
Unknown
Sunlit
N/A
Visualization observer readout
Local Sidereal Time
18:14:02
Azimuth
Unknown
Elevation
Unknown
Doppler factor
Unknown
Orbital elements
Apogee altitude
758.69 km
Perigee altitude
722.255 km
Semi-major axis
7,118.609 km
Eccentricity
0.00256
Inclination
98.6232°
RAAN
21.107°
Arg. of periapsis
155.2756°
True anomaly
204.84318°
Mean anomaly
204.9666°
Eccentric anomaly
204.90485°
Mean motion
3.61369 °/min
Orbital period
99.62 mins
BSTAR
0.0025934
Loading maneuver chart data...
Computing Atmospheric mass density...

Documentation

Showing up to 5 results
|